ATLAS 5 CENTAUR DEB, 44665

Orbit data source: Space-Track

ATLAS 5 CENTAUR DEB, 44665 is space debris in HEO originally from a launch on Wed, 17 Oct 2018 UTC launched from the Air Force Eastern Test Range (AFETR). Debris objects in space refer to the collection of defunct objects orbiting the Earth. Examples of debris include non-operational satellites, rocket bodies, and fragments generated from explosions, collisions, or faulty payload assembly.

Not visible in the next 10 days
Identifier
44665, 2018-079AB
Orbit
HEO
Country
Flag of USUS
Related business
Flag of USUnited Launch Alliance/Lockheed Martin (US)
Manufacturer
ULA Decatur
Mission
Spacecraft
Bus & Motor
Unknown
Mass
Unknown
Launch date (UTC)
2018-10-17 (8 years ago)
Launch vehicle
Unknown
Launch site
Air Force Eastern Test Range (AFETR)
Object type
Payload
Rocket body
Debris
Shape & HBR
Unknown shape, 1.1 m
Radar Cross Section
Medium (>0.1 m² and <1 m²)

Expand to show TLE details & history
Last TLE update: 1 day ago

TLE from 1 day ago
0 ATLAS 5 CENTAUR DEB
1 44665U 18079AB  26167.20258817 -.00000124  00000-0  00000+0 0  9992
2 44665  12.7193  73.4570 4635956 235.9969  70.9574  1.68621875 43358
Epoch: 2026-06-16T04:51Z
TLE epoch observation values (Epoch: 2026-06-16T04:51:43.617Z)
Latitude
0.00004°
Longitude
95.98263°
Altitude
25,253.239 km
Speed
3.44 km/s
True Right ascension
04h 53m 34s
True Declination
0° 00' 00"
Sunlit
Object was in daylight at epoch
Visualization orbit readout
Latitude
Unknown
Longitude
Unknown
Altitude
Unknown
Speed
Unknown
Apparent Right ascension
Unknown
Apparent Declination
Unknown
Sunlit
N/A
Visualization observer readout
Local Sidereal Time
20:50:17
Azimuth
Unknown
Elevation
Unknown
Doppler factor
Unknown
Orbital elements
Apogee altitude
37,264.328 km
Perigee altitude
9,616.725 km
Semi-major axis
29,818.664 km
Eccentricity
0.4636
Inclination
12.7193°
RAAN
73.457°
Arg. of periapsis
235.9969°
True anomaly
123.90722°
Mean anomaly
70.9574°
Eccentric anomaly
97.30394°
Mean motion
0.42151 °/min
Orbital period
854.07 mins
BSTAR
0
Loading maneuver chart data...
Computing Atmospheric mass density...

Documentation

Showing up to 5 results
|